Time,TemperatureF,DewpointF,PressureIn,WindDirection,WindDirectionDegrees,WindSpeedMPH,WindSpeedGustMPH,Humidity,HourlyPrecipIn,Conditions,Clouds,dailyrainin,SoftwareType,DateUTC
2013-02-16 00:00:00,24.0,16.3,30.42,SE,140,0.0,0.0,72,0.00,RA,,0.00,WeatherDisplay:10.37,2013-02-16 07:00:00,
2013-02-16 00:05:00,23.9,16.2,30.42,SE,140,0.0,0.0,72,0.00,RA,,0.00,WeatherDisplay:10.37,2013-02-16 07:05:00,
2013-02-16 00:10:00,23.7,16.0,30.42,SE,140,0.0,0.0,72,0.00,CLR,,0.00,WeatherDisplay:10.37,2013-02-16 07:10:00,
2013-02-16 00:15:00,23.6,15.9,30.42,SE,140,0.0,0.0,72,0.00,CLR,,0.00,WeatherDisplay:10.37,2013-02-16 07:15:00,
2013-02-16 00:20:00,23.4,16.0,30.42,SE,140,0.0,0.0,73,0.00,CLR,,0.00,WeatherDisplay:10.37,2013-02-16 07:20:00,
2013-02-16 00:25:00,23.4,16.0,30.42,SE,140,0.0,0.0,73,0.00,CLR,,0.00,WeatherDisplay:10.37,2013-02-16 07:25:00,
2013-02-16 00:30:00,23.4,16.0,30.42,SE,140,0.0,0.0,73,0.00,CLR,,0.00,WeatherDisplay:10.37,2013-02-16 07:30:00,
2013-02-16 00:35:00,23.4,15.7,30.42,SE,140,0.0,0.0,72,0.00,CLR,,0.00,WeatherDisplay:10.37,2013-02-16 07:35:00,
2013-02-16 00:40:00,23.4,15.7,30.42,SE,140,0.0,0.0,72,0.00,CLR,,0.00,WeatherDisplay:10.37,2013-02-16 07:40:00,
2013-02-16 00:45:00,23.4,15.7,30.42,SE,140,0.0,0.0,72,0.00,CLR,,0.00,WeatherDisplay:10.37,2013-02-16 07:45:00,
2013-02-16 00:50:00,23.5,15.5,30.42,SSE,151,0.0,0.0,71,0.00,CLR,,0.00,WeatherDisplay:10.37,2013-02-16 07:50:00,
2013-02-16 00:56:00,23.7,15.3,30.42,SSE,153,0.0,0.0,70,0.00,CLR,,0.00,WeatherDisplay:10.37,2013-02-16 07:56:00,
2013-02-16 01:01:00,23.7,15.3,30.42,SSE,153,0.0,0.0,70,0.00,CLR,,0.00,WeatherDisplay:10.37,2013-02-16 08:01:00,
2013-02-16 01:06:00,23.6,15.2,30.42,SSE,153,0.0,0.0,70,0.00,CLR,,0.00,WeatherDisplay:10.37,2013-02-16 08:06:00,
2013-02-16 01:11:00,23.5,15.1,30.41,SSE,153,0.0,0.0,70,0.00,CLR,,0.00,WeatherDisplay:10.37,2013-02-16 08:11:00,
2013-02-16 01:17:00,23.4,15.4,30.41,SSE,153,0.0,0.0,71,0.00,CLR,,0.00,WeatherDisplay:10.37,2013-02-16 08:17:00,
2013-02-16 01:22:00,23.3,15.3,30.41,SSE,153,0.0,0.0,71,0.00,CLR,,0.00,WeatherDisplay:10.37,2013-02-16 08:22:00,
2013-02-16 01:27:00,23.1,15.1,30.41,SSE,153,0.0,0.0,71,0.00,CLR,,0.00,WeatherDisplay:10.37,2013-02-16 08:27:00,
2013-02-16 01:32:00,23.1,14.8,30.41,SSE,153,0.0,0.0,70,0.00,CLR,,0.00,WeatherDisplay:10.37,2013-02-16 08:32:00,
2013-02-16 01:37:00,23.0,14.7,30.41,SSE,153,0.0,0.0,70,0.00,CLR,,0.00,WeatherDisplay:10.37,2013-02-16 08:37:00,
2013-02-16 01:43:00,22.9,14.6,30.41,SSE,153,0.0,0.0,70,0.00,CLR,,0.00,WeatherDisplay:10.37,2013-02-16 08:43:00,
2013-02-16 01:48:00,23.0,14.7,30.41,SSE,153,0.0,0.0,70,0.00,CLR,,0.00,WeatherDisplay:10.37,2013-02-16 08:48:00,
2013-02-16 01:53:00,23.0,14.3,30.40,SSE,153,0.0,0.0,69,0.00,CLR,,0.00,WeatherDisplay:10.37,2013-02-16 08:53:00,
2013-02-16 01:58:00,23.0,14.3,30.40,SSE,153,0.0,0.0,69,0.00,CLR,,0.00,WeatherDisplay:10.37,2013-02-16 08:58:00,
2013-02-16 02:04:00,23.1,14.1,30.40,SSE,153,0.0,0.0,68,0.00,CLR,,0.00,WeatherDisplay:10.37,2013-02-16 09:04:00,
2013-02-16 02:09:00,23.1,14.1,30.40,SSE,153,0.0,0.0,68,0.00,CLR,,0.00,WeatherDisplay:10.37,2013-02-16 09:09:00,
2013-02-16 02:14:00,23.1,14.1,30.40,SSE,153,0.0,0.0,68,0.00,CLR,,0.00,WeatherDisplay:10.37,2013-02-16 09:14:00,
2013-02-16 02:19:00,23.2,13.9,30.39,SSE,153,0.0,0.0,67,0.00,CLR,,0.00,WeatherDisplay:10.37,2013-02-16 09:19:00,
2013-02-16 02:25:00,23.3,14.0,30.39,SSE,153,0.0,0.0,67,0.00,CLR,,0.00,WeatherDisplay:10.37,2013-02-16 09:25:00,
2013-02-16 02:30:00,23.4,14.0,30.39,SSE,153,0.0,0.0,67,0.00,CLR,,0.00,WeatherDisplay:10.37,2013-02-16 09:30:00,
2013-02-16 02:35:00,23.5,13.8,30.39,SSE,153,0.0,0.0,66,0.00,CLR,,0.00,WeatherDisplay:10.37,2013-02-16 09:35:00,
2013-02-16 02:40:00,23.5,13.8,30.39,SSE,153,0.0,0.0,66,0.00,CLR,,0.00,WeatherDisplay:10.37,2013-02-16 09:40:00,
2013-02-16 02:45:00,23.5,13.8,30.39,SSE,153,0.0,0.0,66,0.00,CLR,,0.00,WeatherDisplay:10.37,2013-02-16 09:45:00,
2013-02-16 02:50:00,23.5,13.8,30.39,SSE,153,0.0,0.0,66,0.00,CLR,,0.00,WeatherDisplay:10.37,2013-02-16 09:50:00,
2013-02-16 02:55:00,23.5,13.8,30.39,SSE,153,0.0,0.0,66,0.00,CLR,,0.00,WeatherDisplay:10.37,2013-02-16 09:55:00,
2013-02-16 03:00:00,23.5,13.8,30.39,SSE,153,0.0,0.0,66,0.00,CLR,,0.00,WeatherDisplay:10.37,2013-02-16 10:00:00,
2013-02-16 03:05:00,23.5,13.8,30.38,SSE,153,0.0,0.0,66,0.00,CLR,,0.00,WeatherDisplay:10.37,2013-02-16 10:05:00,
2013-02-16 03:10:00,23.6,13.9,30.38,SSE,153,0.0,0.0,66,0.00,CLR,,0.00,WeatherDisplay:10.37,2013-02-16 10:10:00,
2013-02-16 03:15:00,23.6,13.9,30.38,SSE,153,0.0,0.0,66,0.00,CLR,,0.00,WeatherDisplay:10.37,2013-02-16 10:15:00,
2013-02-16 03:20:00,23.6,13.9,30.38,SSE,153,0.0,0.0,66,0.00,CLR,,0.00,WeatherDisplay:10.37,2013-02-16 10:20:00,
2013-02-16 03:25:00,23.6,13.5,30.38,SSE,153,0.0,0.0,65,0.00,CLR,,0.00,WeatherDisplay:10.37,2013-02-16 10:25:00,
2013-02-16 03:30:00,23.6,13.6,30.38,SSE,153,0.0,0.0,65,0.00,CLR,,0.00,WeatherDisplay:10.37,2013-02-16 10:30:00,
2013-02-16 03:35:00,23.7,13.3,30.38,SSE,153,0.0,0.0,64,0.00,CLR,,0.00,WeatherDisplay:10.37,2013-02-16 10:35:00,
2013-02-16 03:40:00,23.7,13.6,30.38,SSE,153,0.0,0.0,65,0.00,CLR,,0.00,WeatherDisplay:10.37,2013-02-16 10:40:00,
2013-02-16 03:45:00,23.8,13.4,30.38,SSE,153,0.0,0.0,64,0.00,CLR,,0.00,WeatherDisplay:10.37,2013-02-16 10:45:00,
2013-02-16 03:50:00,23.9,13.1,30.38,SSE,153,0.0,0.0,63,0.00,CLR,,0.00,WeatherDisplay:10.37,2013-02-16 10:50:00,
2013-02-16 03:55:00,24.0,13.2,30.38,SSE,153,0.0,0.0,63,0.00,CLR,,0.00,WeatherDisplay:10.37,2013-02-16 10:55:00,
2013-02-16 04:00:00,24.0,12.9,30.38,SSE,153,0.0,0.0,62,0.00,CLR,,0.00,WeatherDisplay:10.37,2013-02-16 11:00:00,
2013-02-16 04:05:00,24.1,12.9,30.38,SSE,153,0.0,0.0,62,0.00,CLR,,0.00,WeatherDisplay:10.37,2013-02-16 11:05:00,
2013-02-16 04:10:00,24.1,12.9,30.37,SSE,153,0.0,0.0,62,0.00,CLR,,0.00,WeatherDisplay:10.37,2013-02-16 11:10:00,
2013-02-16 04:15:00,24.1,12.9,30.37,SSE,153,0.0,0.0,62,0.00,CLR,,0.00,WeatherDisplay:10.37,2013-02-16 11:15:00,
2013-02-16 04:20:00,24.1,12.9,30.37,SSE,153,0.0,0.0,62,0.00,CLR,,0.00,WeatherDisplay:10.37,2013-02-16 11:20:00,
2013-02-16 04:25:00,24.2,13.0,30.37,SSE,153,0.0,0.0,62,0.00,CLR,,0.00,WeatherDisplay:10.37,2013-02-16 11:25:00,
2013-02-16 04:30:00,24.4,12.9,30.37,SSE,153,0.0,0.0,61,0.00,CLR,,0.00,WeatherDisplay:10.37,2013-02-16 11:30:00,
2013-02-16 04:35:00,24.4,13.2,30.37,SSE,153,0.0,0.0,62,0.00,CLR,,0.00,WeatherDisplay:10.37,2013-02-16 11:35:00,
2013-02-16 04:41:00,24.2,13.0,30.36,SSE,153,0.0,0.0,62,0.00,CLR,,0.00,WeatherDisplay:10.37,2013-02-16 11:41:00,
2013-02-16 04:46:00,24.0,12.9,30.36,SSE,153,0.0,0.0,62,0.00,CLR,,0.00,WeatherDisplay:10.37,2013-02-16 11:46:00,
2013-02-16 04:51:00,23.9,13.1,30.36,SSE,153,0.0,0.0,63,0.00,CLR,,0.00,WeatherDisplay:10.37,2013-02-16 11:51:00,
2013-02-16 04:56:00,23.8,13.0,30.37,SSE,153,0.0,0.0,63,0.00,CLR,,0.00,WeatherDisplay:10.37,2013-02-16 11:56:00,
2013-02-16 05:01:00,23.8,13.0,30.37,SSE,153,0.0,0.0,63,0.00,CLR,,0.00,WeatherDisplay:10.37,2013-02-16 12:01:00,
2013-02-16 05:07:00,23.9,13.1,30.36,SSE,153,0.0,0.0,63,0.00,CLR,,0.00,WeatherDisplay:10.37,2013-02-16 12:07:00,
2013-02-16 05:12:00,24.3,13.1,30.36,SSE,153,0.0,0.0,62,0.00,CLR,,0.00,WeatherDisplay:10.37,2013-02-16 12:12:00,
2013-02-16 05:17:00,24.5,13.0,30.36,SSE,154,0.0,0.0,61,0.00,CLR,,0.00,WeatherDisplay:10.37,2013-02-16 12:17:00,
2013-02-16 05:23:00,24.4,13.2,30.35,SSE,154,0.0,0.0,62,0.00,CLR,,0.00,WeatherDisplay:10.37,2013-02-16 12:23:00,
2013-02-16 05:28:00,24.3,13.1,30.35,SSE,154,0.0,0.0,62,0.00,CLR,,0.00,WeatherDisplay:10.37,2013-02-16 12:28:00,
2013-02-16 05:33:00,24.1,12.9,30.35,SSE,154,0.0,0.0,62,0.00,CLR,,0.00,WeatherDisplay:10.37,2013-02-16 12:33:00,
2013-02-16 05:38:00,24.0,13.2,30.34,SSE,154,0.0,0.0,63,0.00,CLR,,0.00,WeatherDisplay:10.37,2013-02-16 12:38:00,
2013-02-16 05:44:00,23.8,13.0,30.35,SSE,153,0.0,0.0,63,0.00,CLR,,0.00,WeatherDisplay:10.37,2013-02-16 12:44:00,
2013-02-16 05:49:00,23.6,13.2,30.35,SSE,154,0.0,0.0,64,0.00,CLR,,0.00,WeatherDisplay:10.37,2013-02-16 12:49:00,
2013-02-16 05:54:00,23.5,13.1,30.35,SSE,153,0.0,0.0,64,0.00,CLR,,0.00,WeatherDisplay:10.37,2013-02-16 12:54:00,
2013-02-16 05:59:00,23.5,13.1,30.35,SSE,154,0.0,0.0,64,0.00,CLR,,0.00,WeatherDisplay:10.37,2013-02-16 12:59:00,
2013-02-16 06:05:00,23.5,13.1,30.35,SSE,154,0.0,0.0,64,0.00,CLR,,0.00,WeatherDisplay:10.37,2013-02-16 13:05:00,
2013-02-16 06:10:00,23.4,13.0,30.34,SSE,154,0.0,0.0,64,0.00,CLR,,0.00,WeatherDisplay:10.37,2013-02-16 13:10:00,
2013-02-16 06:15:00,23.2,12.8,30.34,SSE,154,0.0,0.0,64,0.00,CLR,,0.00,WeatherDisplay:10.37,2013-02-16 13:15:00,
2013-02-16 06:20:00,23.1,12.7,30.34,SSE,154,0.0,0.0,64,0.00,CLR,,0.00,WeatherDisplay:10.37,2013-02-16 13:20:00,
2013-02-16 06:25:00,23.0,12.6,30.34,SSE,154,0.0,0.0,64,0.00,CLR,,0.00,WeatherDisplay:10.37,2013-02-16 13:25:00,
2013-02-16 06:30:00,22.9,12.5,30.33,SSE,153,0.0,0.0,64,0.00,CLR,,0.00,WeatherDisplay:10.37,2013-02-16 13:30:00,
2013-02-16 06:35:00,22.9,12.9,30.33,SSE,154,0.0,0.0,65,0.00,CLR,,0.00,WeatherDisplay:10.37,2013-02-16 13:35:00,
2013-02-16 06:40:00,22.8,12.8,30.33,SSE,154,0.0,0.0,65,0.00,CLR,,0.00,WeatherDisplay:10.37,2013-02-16 13:40:00,
2013-02-16 06:45:00,22.7,12.7,30.34,SSE,154,0.0,0.0,65,0.00,CLR,,0.00,WeatherDisplay:10.37,2013-02-16 13:45:00,
2013-02-16 06:50:00,22.7,12.7,30.34,SSE,153,0.0,0.0,65,0.00,CLR,,0.00,WeatherDisplay:10.37,2013-02-16 13:50:00,
2013-02-16 06:55:00,22.6,12.9,30.34,SSE,154,0.0,0.0,66,0.00,CLR,,0.00,WeatherDisplay:10.37,2013-02-16 13:55:00,
2013-02-16 07:00:00,22.6,12.9,30.33,SSE,154,0.0,0.0,66,0.00,CLR,,0.00,WeatherDisplay:10.37,2013-02-16 14:00:00,
2013-02-16 07:05:00,22.6,12.9,30.33,SSE,154,0.0,0.0,66,0.00,CLR,,0.00,WeatherDisplay:10.37,2013-02-16 14:05:00,
2013-02-16 07:10:00,22.5,12.8,30.33,SSE,154,0.0,0.0,66,0.00,CLR,,0.00,WeatherDisplay:10.37,2013-02-16 14:10:00,
2013-02-16 07:15:00,22.4,13.1,30.34,SSE,154,0.0,0.0,67,0.00,CLR,,0.00,WeatherDisplay:10.37,2013-02-16 14:15:00,
2013-02-16 07:20:00,22.6,13.3,30.34,SSE,154,0.0,0.0,67,0.00,CLR,,0.00,WeatherDisplay:10.37,2013-02-16 14:20:00,
2013-02-16 07:25:00,23.0,13.6,30.34,SSE,154,0.0,0.0,67,0.00,CLR,,0.00,WeatherDisplay:10.37,2013-02-16 14:25:00,
2013-02-16 07:30:00,23.5,14.1,30.34,SSE,153,0.0,0.0,67,0.00,CLR,,0.00,WeatherDisplay:10.37,2013-02-16 14:30:00,
2013-02-16 07:35:00,23.8,14.1,30.34,SSE,154,0.0,0.0,66,0.00,CLR,,0.00,WeatherDisplay:10.37,2013-02-16 14:35:00,
2013-02-16 07:40:00,24.1,14.4,30.34,SSE,154,0.0,0.0,66,0.00,CLR,,0.00,WeatherDisplay:10.37,2013-02-16 14:40:00,
2013-02-16 07:45:00,24.7,14.9,30.33,SSE,154,0.0,0.0,66,0.00,CLR,,0.00,WeatherDisplay:10.37,2013-02-16 14:45:00,
2013-02-16 07:50:00,25.5,15.0,30.33,SSE,154,0.0,0.0,64,0.00,CLR,,0.00,WeatherDisplay:10.37,2013-02-16 14:50:00,
2013-02-16 07:55:00,26.7,15.8,30.33,SSE,154,0.0,0.0,63,0.00,CLR,,0.00,WeatherDisplay:10.37,2013-02-16 14:55:00,
2013-02-16 08:00:00,27.9,15.8,30.34,SSE,154,0.0,0.0,60,0.00,CLR,,0.00,WeatherDisplay:10.37,2013-02-16 15:00:00,
2013-02-16 08:05:00,28.8,16.2,30.34,SSE,154,0.0,0.0,59,0.00,CLR,,0.00,WeatherDisplay:10.37,2013-02-16 15:05:00,
2013-02-16 08:10:00,29.8,16.4,30.34,SSE,154,0.0,0.0,57,0.00,CLR,,0.00,WeatherDisplay:10.37,2013-02-16 15:10:00,
2013-02-16 08:15:00,30.9,16.6,30.34,SSE,154,0.0,0.0,55,0.00,CLR,,0.00,WeatherDisplay:10.37,2013-02-16 15:15:00,
2013-02-16 08:20:00,31.9,17.1,30.34,SSE,154,0.0,0.0,54,0.00,CLR,,0.00,WeatherDisplay:10.37,2013-02-16 15:20:00,
2013-02-16 08:25:00,33.3,17.1,30.34,SSE,154,0.0,0.0,51,0.00,CLR,,0.00,WeatherDisplay:10.37,2013-02-16 15:25:00,
2013-02-16 08:30:00,35.1,17.8,30.34,SSE,154,0.0,0.0,49,0.00,CLR,,0.00,WeatherDisplay:10.37,2013-02-16 15:30:00,
2013-02-16 08:35:00,37.2,17.8,30.34,SSE,153,1.0,3.0,45,0.00,CLR,,0.00,WeatherDisplay:10.37,2013-02-16 15:35:00,
2013-02-16 08:40:00,39.1,17.3,30.33,South,173,0.0,4.0,41,0.00,CLR,,0.00,WeatherDisplay:10.37,2013-02-16 15:40:00,
2013-02-16 08:45:00,40.6,16.9,30.33,SW,217,0.0,4.0,38,0.00,CLR,,0.00,WeatherDisplay:10.37,2013-02-16 15:45:00,
2013-02-16 08:50:00,41.8,18.0,30.33,SW,222,0.0,0.0,38,0.00,CLR,,0.00,WeatherDisplay:10.37,2013-02-16 15:50:00,
2013-02-16 08:55:00,42.7,17.6,30.33,SW,222,0.0,0.0,36,0.00,CLR,,0.00,WeatherDisplay:10.37,2013-02-16 15:55:00,
2013-02-16 09:00:00,43.6,17.1,30.33,SW,222,0.0,0.0,34,0.00,CLR,,0.00,WeatherDisplay:10.37,2013-02-16 16:00:00,
2013-02-16 09:05:00,44.5,17.8,30.32,SW,222,0.0,2.0,34,0.00,CLR,,0.00,WeatherDisplay:10.37,2013-02-16 16:05:00,
2013-02-16 09:10:00,45.2,16.3,30.32,WNW,284,3.0,6.0,31,0.00,CLR,,0.00,WeatherDisplay:10.37,2013-02-16 16:10:00,
2013-02-16 09:15:00,45.9,16.9,30.32,NW,305,2.0,2.0,31,0.00,CLR,,0.00,WeatherDisplay:10.37,2013-02-16 16:15:00,
2013-02-16 09:20:00,46.2,17.9,30.31,SW,217,3.5,0.0,32,0.00,CLR,,0.00,WeatherDisplay:10.37,2013-02-16 16:20:00,
2013-02-16 09:25:00,46.5,18.2,30.32,SW,218,0.0,3.0,32,0.00,CLR,,0.00,WeatherDisplay:10.37,2013-02-16 16:25:00,
2013-02-16 09:30:00,46.8,17.0,30.31,SW,218,1.0,3.0,30,0.00,CLR,,0.00,WeatherDisplay:10.37,2013-02-16 16:30:00,
2013-02-16 09:35:00,47.3,17.4,30.31,SW,221,1.1,1.1,30,0.00,CLR,,0.00,WeatherDisplay:10.37,2013-02-16 16:35:00,
2013-02-16 09:40:00,47.7,17.0,30.31,SW,221,0.0,5.0,29,0.00,CLR,,0.00,WeatherDisplay:10.37,2013-02-16 16:40:00,
2013-02-16 09:45:00,48.4,16.7,30.30,SW,224,2.3,2.3,28,0.00,CLR,,0.00,WeatherDisplay:10.37,2013-02-16 16:45:00,
2013-02-16 09:50:00,49.0,16.4,30.31,SW,227,3.0,3.0,27,0.00,CLR,,0.00,WeatherDisplay:10.37,2013-02-16 16:50:00,
2013-02-16 09:55:00,49.4,16.8,30.31,WNW,302,3.5,3.5,27,0.00,CLR,,0.00,WeatherDisplay:10.37,2013-02-16 16:55:00,
2013-02-16 10:00:00,49.7,17.0,30.30,WNW,302,2.0,2.0,27,0.00,CLR,,0.00,WeatherDisplay:10.37,2013-02-16 17:00:00,
2013-02-16 10:06:00,49.9,16.3,30.30,WNW,283,4.6,4.6,26,0.00,CLR,,0.00,WeatherDisplay:10.37,2013-02-16 17:06:00,
2013-02-16 10:11:00,50.3,16.7,30.30,NW,321,10.4,10.4,26,0.00,CLR,,0.00,WeatherDisplay:10.37,2013-02-16 17:11:00,
2013-02-16 10:16:00,50.5,16.8,30.30,WSW,256,5.8,5.8,26,0.00,CLR,,0.00,WeatherDisplay:10.37,2013-02-16 17:16:00,
2013-02-16 10:21:00,50.8,16.2,30.30,West,268,11.5,11.5,25,0.00,CLR,,0.00,WeatherDisplay:10.37,2013-02-16 17:21:00,
2013-02-16 10:26:00,50.9,16.3,30.29,WNW,297,9.0,9.0,25,0.00,CLR,,0.00,WeatherDisplay:10.37,2013-02-16 17:26:00,
2013-02-16 10:32:00,51.1,16.4,30.29,WNW,303,10.4,10.4,25,0.00,CLR,,0.00,WeatherDisplay:10.37,2013-02-16 17:32:00,
2013-02-16 10:37:00,51.5,16.8,30.29,WNW,289,12.7,12.7,25,0.00,CLR,,0.00,WeatherDisplay:10.37,2013-02-16 17:37:00,
2013-02-16 10:42:00,51.7,16.0,30.29,West,280,12.7,12.7,24,0.00,CLR,,0.00,WeatherDisplay:10.37,2013-02-16 17:42:00,
2013-02-16 10:47:00,52.1,16.4,30.28,WSW,252,9.2,9.2,24,0.00,CLR,,0.00,WeatherDisplay:10.37,2013-02-16 17:47:00,
2013-02-16 10:53:00,52.1,16.4,30.28,NW,304,6.9,6.9,24,0.00,CLR,,0.00,WeatherDisplay:10.37,2013-02-16 17:53:00,
2013-02-16 10:58:00,52.1,16.4,30.28,WSW,244,7.0,7.0,24,0.00,CLR,,0.00,WeatherDisplay:10.37,2013-02-16 17:58:00,
2013-02-16 11:03:00,52.2,16.4,30.28,NW,313,13.8,13.8,24,0.00,CLR,,0.00,WeatherDisplay:10.37,2013-02-16 18:03:00,
2013-02-16 11:08:00,52.1,16.4,30.28,WNW,300,9.2,9.2,24,0.00,CLR,,0.00,WeatherDisplay:10.37,2013-02-16 18:08:00,
2013-02-16 11:14:00,52.1,15.4,30.28,WSW,252,11.5,11.5,23,0.00,CLR,,0.00,WeatherDisplay:10.37,2013-02-16 18:14:00,
2013-02-16 11:19:00,52.2,16.4,30.28,NW,310,11.5,11.5,24,0.00,CLR,,0.00,WeatherDisplay:10.37,2013-02-16 18:19:00,
2013-02-16 11:24:00,52.6,16.8,30.27,WSW,252,11.5,11.5,24,0.00,CLR,,0.00,WeatherDisplay:10.37,2013-02-16 18:24:00,
2013-02-16 11:29:00,52.8,16.0,30.27,NW,317,12.7,12.7,23,0.00,CLR,,0.00,WeatherDisplay:10.37,2013-02-16 18:29:00,
2013-02-16 11:35:00,53.0,17.1,30.27,WNW,295,2.0,8.0,24,0.00,CLR,,0.00,WeatherDisplay:10.37,2013-02-16 18:35:00,
2013-02-16 11:40:00,53.2,16.3,30.27,WNW,302,6.0,9.0,23,0.00,CLR,,0.00,WeatherDisplay:10.37,2013-02-16 18:40:00,
2013-02-16 11:45:00,53.2,16.3,30.27,WNW,298,5.0,12.0,23,0.00,CLR,,0.00,WeatherDisplay:10.37,2013-02-16 18:45:00,
2013-02-16 11:50:00,53.3,16.4,30.26,West,262,12.7,12.7,23,0.00,CLR,,0.00,WeatherDisplay:10.37,2013-02-16 18:50:00,
2013-02-16 11:55:00,53.2,16.3,30.26,WNW,293,3.0,13.0,23,0.00,CLR,,0.00,WeatherDisplay:10.37,2013-02-16 18:55:00,
2013-02-16 12:00:00,53.3,16.4,30.26,WNW,299,3.0,8.0,23,0.00,CLR,,0.00,WeatherDisplay:10.37,2013-02-16 19:00:00,
2013-02-16 12:05:00,53.9,16.9,30.26,West,279,5.0,12.0,23,0.00,CLR,,0.00,WeatherDisplay:10.37,2013-02-16 19:05:00,
2013-02-16 12:10:00,54.2,16.1,30.25,WNW,283,3.0,10.0,22,0.00,CLR,,0.00,WeatherDisplay:10.37,2013-02-16 19:10:00,
2013-02-16 12:15:00,54.3,17.3,30.25,NW,304,2.0,5.0,23,0.00,CLR,,0.00,WeatherDisplay:10.37,2013-02-16 19:15:00,
2013-02-16 12:20:00,54.4,16.3,30.25,NW,307,4.6,4.6,22,0.00,CLR,,0.00,WeatherDisplay:10.37,2013-02-16 19:20:00,
2013-02-16 12:25:00,54.5,17.4,30.25,WNW,289,5.0,12.0,23,0.00,CLR,,0.00,WeatherDisplay:10.37,2013-02-16 19:25:00,
2013-02-16 12:30:00,54.6,16.4,30.24,WNW,284,5.0,15.0,22,0.00,CLR,,0.00,WeatherDisplay:10.37,2013-02-16 19:30:00,
2013-02-16 12:35:00,54.5,16.4,30.24,WNW,292,6.0,13.0,22,0.00,CLR,,0.00,WeatherDisplay:10.37,2013-02-16 19:35:00,
2013-02-16 12:40:00,54.4,16.3,30.23,WNW,298,5.0,12.0,22,0.00,CLR,,0.00,WeatherDisplay:10.37,2013-02-16 19:40:00,
2013-02-16 12:45:00,54.6,16.5,30.23,WNW,288,5.0,15.0,22,0.00,CLR,,0.00,WeatherDisplay:10.37,2013-02-16 19:45:00,
2013-02-16 12:50:00,54.6,16.5,30.23,WNW,288,6.0,14.0,22,0.00,CLR,,0.00,WeatherDisplay:10.37,2013-02-16 19:50:00,
2013-02-16 12:55:00,54.6,16.5,30.23,West,263,15.0,15.0,22,0.00,CLR,,0.00,WeatherDisplay:10.37,2013-02-16 19:55:00,
2013-02-16 13:00:00,54.6,16.5,30.22,NW,319,9.2,9.2,22,0.00,CLR,,0.00,WeatherDisplay:10.37,2013-02-16 20:00:00,
2013-02-16 13:05:00,55.1,17.9,30.22,SSW,209,5.8,5.8,23,0.00,CLR,,0.00,WeatherDisplay:10.37,2013-02-16 20:05:00,
2013-02-16 13:10:00,55.7,17.4,30.21,WNW,302,11.5,11.5,22,0.00,CLR,,0.00,WeatherDisplay:10.37,2013-02-16 20:10:00,
2013-02-16 13:15:00,55.6,17.3,30.21,WNW,290,6.0,6.0,22,0.00,CLR,,0.00,WeatherDisplay:10.37,2013-02-16 20:15:00,
2013-02-16 13:20:00,55.4,17.1,30.21,WNW,300,4.6,4.7,22,0.00,CLR,,0.00,WeatherDisplay:10.37,2013-02-16 20:20:00,
2013-02-16 13:26:00,55.1,16.9,30.20,NW,314,6.9,6.9,22,0.00,CLR,,0.00,WeatherDisplay:10.37,2013-02-16 20:26:00,
2013-02-16 13:31:00,55.1,16.9,30.20,NW,304,8.1,8.1,22,0.00,CLR,,0.00,WeatherDisplay:10.37,2013-02-16 20:31:00,
2013-02-16 13:36:00,55.4,18.2,30.20,NNW,342,4.6,4.6,23,0.00,CLR,,0.00,WeatherDisplay:10.37,2013-02-16 20:36:00,
2013-02-16 13:41:00,55.6,17.3,30.20,West,274,7.0,7.0,22,0.00,CLR,,0.00,WeatherDisplay:10.37,2013-02-16 20:41:00,
2013-02-16 13:47:00,55.7,17.4,30.20,West,267,11.5,11.5,22,0.00,CLR,,0.00,WeatherDisplay:10.37,2013-02-16 20:47:00,
2013-02-16 13:52:00,55.7,17.4,30.19,WNW,298,6.9,6.9,22,0.00,CLR,,0.00,WeatherDisplay:10.37,2013-02-16 20:52:00,
2013-02-16 13:57:00,56.0,17.6,30.19,WNW,300,9.2,9.2,22,0.00,CLR,,0.00,WeatherDisplay:10.37,2013-02-16 20:57:00,
2013-02-16 14:03:00,56.0,17.6,30.19,WSW,240,15.0,15.0,22,0.00,CLR,,0.00,WeatherDisplay:10.37,2013-02-16 21:03:00,
2013-02-16 14:08:00,55.8,16.4,30.19,WNW,294,11.5,11.5,21,0.00,CLR,,0.00,WeatherDisplay:10.37,2013-02-16 21:08:00,
2013-02-16 14:13:00,55.7,16.3,30.19,SW,230,5.8,5.8,21,0.00,CLR,,0.00,WeatherDisplay:10.37,2013-02-16 21:13:00,
2013-02-16 14:18:00,55.8,17.5,30.19,NNW,329,6.9,6.9,22,0.00,CLR,,0.00,WeatherDisplay:10.37,2013-02-16 21:18:00,
2013-02-16 14:23:00,55.9,16.5,30.18,NW,313,15.0,15.0,21,0.00,CLR,,0.00,WeatherDisplay:10.37,2013-02-16 21:23:00,
2013-02-16 14:28:00,55.8,17.5,30.18,WNW,286,6.9,6.9,22,0.00,CLR,,0.00,WeatherDisplay:10.37,2013-02-16 21:28:00,
2013-02-16 14:34:00,56.2,16.7,30.18,NW,307,10.4,10.4,21,0.00,CLR,,0.00,WeatherDisplay:10.37,2013-02-16 21:34:00,
2013-02-16 14:39:00,56.5,17.0,30.18,NW,317,6.9,6.9,21,0.00,CLR,,0.00,WeatherDisplay:10.37,2013-02-16 21:39:00,
2013-02-16 14:44:00,56.2,16.7,30.18,NW,304,9.2,9.2,21,0.00,CLR,,0.00,WeatherDisplay:10.37,2013-02-16 21:44:00,
2013-02-16 14:49:00,56.2,16.7,30.17,WNW,300,9.2,9.2,21,0.00,CLR,,0.00,WeatherDisplay:10.37,2013-02-16 21:49:00,
2013-02-16 14:55:00,56.4,18.0,30.17,West,268,3.0,9.0,22,0.00,CLR,,0.00,WeatherDisplay:10.37,2013-02-16 21:55:00,
2013-02-16 15:00:00,56.6,17.1,30.17,West,270,3.0,14.0,21,0.00,CLR,,0.00,WeatherDisplay:10.37,2013-02-16 22:00:00,
2013-02-16 15:05:00,56.5,18.1,30.17,WNW,288,1.0,10.0,22,0.00,CLR,,0.00,WeatherDisplay:10.37,2013-02-16 22:05:00,
2013-02-16 15:10:00,56.3,16.8,30.17,West,261,6.0,15.0,21,0.00,CLR,,0.00,WeatherDisplay:10.37,2013-02-16 22:10:00,
2013-02-16 15:15:00,56.0,16.6,30.17,WSW,255,3.0,9.0,21,0.00,CLR,,0.00,WeatherDisplay:10.37,2013-02-16 22:15:00,
2013-02-16 15:20:00,56.0,17.7,30.17,West,272,2.0,10.0,22,0.00,CLR,,0.00,WeatherDisplay:10.37,2013-02-16 22:20:00,
2013-02-16 15:25:00,55.9,16.5,30.16,WNW,288,6.0,14.0,21,0.00,CLR,,0.00,WeatherDisplay:10.37,2013-02-16 22:25:00,
2013-02-16 15:30:00,55.6,17.3,30.17,WNW,286,2.0,10.0,22,0.00,CLR,,0.00,WeatherDisplay:10.37,2013-02-16 22:30:00,
2013-02-16 15:35:00,55.4,16.1,30.16,West,279,3.0,12.0,21,0.00,CLR,,0.00,WeatherDisplay:10.37,2013-02-16 22:35:00,
2013-02-16 15:40:00,55.3,16.0,30.16,WNW,282,3.0,12.0,21,0.00,CLR,,0.00,WeatherDisplay:10.37,2013-02-16 22:40:00,
2013-02-16 15:45:00,55.2,15.9,30.16,WNW,288,3.0,14.0,21,0.00,CLR,,0.00,WeatherDisplay:10.37,2013-02-16 22:45:00,
2013-02-16 15:50:00,55.1,15.8,30.16,West,261,6.9,6.9,21,0.00,CLR,,0.00,WeatherDisplay:10.37,2013-02-16 22:50:00,
2013-02-16 15:55:00,55.1,15.8,30.15,West,280,5.0,13.0,21,0.00,CLR,,0.00,WeatherDisplay:10.37,2013-02-16 22:55:00,
2013-02-16 16:00:00,55.2,15.9,30.15,West,266,2.0,10.0,21,0.00,CLR,,0.00,WeatherDisplay:10.37,2013-02-16 23:00:00,
2013-02-16 16:05:00,55.4,16.0,30.15,West,279,1.0,12.0,21,0.00,CLR,,0.00,WeatherDisplay:10.37,2013-02-16 23:05:00,
2013-02-16 16:10:00,55.5,16.1,30.15,WNW,297,2.0,12.0,21,0.00,CLR,,0.00,WeatherDisplay:10.37,2013-02-16 23:10:00,
2013-02-16 16:15:00,55.4,16.0,30.15,NW,307,5.0,16.0,21,0.00,CLR,,0.00,WeatherDisplay:10.37,2013-02-16 23:15:00,
2013-02-16 16:20:00,55.1,15.8,30.14,NW,311,3.0,13.0,21,0.00,CLR,,0.00,WeatherDisplay:10.37,2013-02-16 23:20:00,
2013-02-16 16:25:00,54.9,15.6,30.14,WNW,299,5.0,10.0,21,0.00,CLR,,0.00,WeatherDisplay:10.37,2013-02-16 23:25:00,
2013-02-16 16:30:00,54.6,15.4,30.15,WNW,289,0.0,12.0,21,0.00,CLR,,0.00,WeatherDisplay:10.37,2013-02-16 23:30:00,
2013-02-16 16:35:00,54.5,15.3,30.14,West,276,0.0,9.0,21,0.00,CLR,,0.00,WeatherDisplay:10.37,2013-02-16 23:35:00,
2013-02-16 16:40:00,54.5,15.3,30.14,West,272,2.0,8.0,21,0.00,CLR,,0.00,WeatherDisplay:10.37,2013-02-16 23:40:00,
2013-02-16 16:45:00,54.0,14.9,30.14,WNW,290,0.0,1.0,21,0.00,CLR,,0.00,WeatherDisplay:10.37,2013-02-16 23:45:00,
2013-02-16 16:50:00,53.5,14.5,30.14,NW,307,2.0,10.0,21,0.00,CLR,,0.00,WeatherDisplay:10.37,2013-02-16 23:50:00,
2013-02-16 16:55:00,53.1,15.2,30.14,WNW,302,2.0,7.0,22,0.00,CLR,,0.00,WeatherDisplay:10.37,2013-02-16 23:55:00,
2013-02-16 17:00:00,52.8,14.9,30.14,WNW,293,3.0,10.0,22,0.00,CLR,,0.00,WeatherDisplay:10.37,2013-02-17 00:00:00,
2013-02-16 17:05:00,52.6,14.7,30.15,WNW,290,3.0,12.0,22,0.00,CLR,,0.00,WeatherDisplay:10.37,2013-02-17 00:05:00,
2013-02-16 17:10:00,52.3,14.5,30.15,WNW,297,6.0,12.0,22,0.00,CLR,,0.00,WeatherDisplay:10.37,2013-02-17 00:10:00,
2013-02-16 17:15:00,51.9,14.2,30.14,WNW,287,3.0,13.0,22,0.00,CLR,,0.00,WeatherDisplay:10.37,2013-02-17 00:15:00,
2013-02-16 17:20:00,51.6,13.9,30.14,West,267,3.0,12.0,22,0.00,CLR,,0.00,WeatherDisplay:10.37,2013-02-17 00:20:00,
2013-02-16 17:25:00,51.2,14.6,30.14,WSW,252,10.0,10.0,23,0.00,CLR,,0.00,WeatherDisplay:10.37,2013-02-17 00:25:00,
2013-02-16 17:30:00,51.0,14.4,30.14,WNW,287,0.0,10.0,23,0.00,CLR,,0.00,WeatherDisplay:10.37,2013-02-17 00:30:00,
2013-02-16 17:35:00,50.7,14.2,30.14,West,279,0.0,4.0,23,0.00,CLR,,0.00,WeatherDisplay:10.37,2013-02-17 00:35:00,
2013-02-16 17:40:00,50.3,13.9,30.14,WSW,251,1.0,6.0,23,0.00,CLR,,0.00,WeatherDisplay:10.37,2013-02-17 00:40:00,
2013-02-16 17:45:00,50.0,14.6,30.14,West,260,0.0,5.0,24,0.00,CLR,,0.00,WeatherDisplay:10.37,2013-02-17 00:45:00,
2013-02-16 17:50:00,49.8,14.4,30.14,WNW,288,1.0,6.0,24,0.00,CLR,,0.00,WeatherDisplay:10.37,2013-02-17 00:50:00,
2013-02-16 17:55:00,49.7,14.3,30.14,WNW,288,1.0,4.0,24,0.00,CLR,,0.00,WeatherDisplay:10.37,2013-02-17 00:55:00,
2013-02-16 18:00:00,49.6,14.2,30.14,West,275,1.0,3.0,24,0.00,CLR,,0.00,WeatherDisplay:10.37,2013-02-17 01:00:00,
2013-02-16 18:05:00,49.3,14.0,30.14,West,278,0.0,5.0,24,0.00,CLR,,0.00,WeatherDisplay:10.37,2013-02-17 01:05:00,
2013-02-16 18:10:00,49.1,13.8,30.13,West,280,0.0,3.0,24,0.00,CLR,,0.00,WeatherDisplay:10.37,2013-02-17 01:10:00,
2013-02-16 18:15:00,48.9,13.6,30.13,WNW,293,2.0,9.0,24,0.00,CLR,,0.00,WeatherDisplay:10.37,2013-02-17 01:15:00,
2013-02-16 18:20:00,48.8,13.6,30.13,West,281,1.0,6.0,24,0.00,CLR,,0.00,WeatherDisplay:10.37,2013-02-17 01:20:00,
2013-02-16 18:25:00,48.7,13.5,30.13,WNW,287,0.0,6.0,24,0.00,CLR,,0.00,WeatherDisplay:10.37,2013-02-17 01:25:00,
2013-02-16 18:30:00,48.6,13.4,30.13,WNW,285,1.0,5.0,24,0.00,CLR,,0.00,WeatherDisplay:10.37,2013-02-17 01:30:00,
2013-02-16 18:35:00,48.6,13.4,30.12,NNW,332,2.3,0.0,24,0.00,CLR,,0.00,WeatherDisplay:10.37,2013-02-17 01:35:00,
2013-02-16 18:40:00,48.5,13.3,30.12,West,264,1.0,5.0,24,0.00,CLR,,0.00,WeatherDisplay:10.37,2013-02-17 01:40:00,
2013-02-16 18:45:00,48.3,13.1,30.12,WSW,238,1.0,5.0,24,0.00,CLR,,0.00,WeatherDisplay:10.37,2013-02-17 01:45:00,
2013-02-16 18:50:00,48.2,13.0,30.12,West,272,0.0,7.0,24,0.00,CLR,,0.00,WeatherDisplay:10.37,2013-02-17 01:50:00,
2013-02-16 18:55:00,48.2,13.0,30.12,WNW,303,2.0,6.0,24,0.00,CLR,,0.00,WeatherDisplay:10.37,2013-02-17 01:55:00,
2013-02-16 19:00:00,48.2,14.0,30.11,WNW,296,3.5,3.5,25,0.00,CLR,,0.00,WeatherDisplay:10.37,2013-02-17 02:00:00,
2013-02-16 19:05:00,48.2,14.0,30.11,West,279,1.0,12.0,25,0.00,CLR,,0.00,WeatherDisplay:10.37,2013-02-17 02:05:00,
2013-02-16 19:10:00,48.2,14.0,30.11,WNW,285,1.0,5.0,25,0.00,CLR,,0.00,WeatherDisplay:10.37,2013-02-17 02:10:00,
2013-02-16 19:15:00,48.0,13.8,30.11,NW,305,1.0,5.0,25,0.00,CLR,,0.00,WeatherDisplay:10.37,2013-02-17 02:15:00,
2013-02-16 19:20:00,47.9,13.7,30.11,NW,307,2.0,7.0,25,0.00,CLR,,0.00,WeatherDisplay:10.37,2013-02-17 02:20:00,
2013-02-16 19:25:00,47.8,13.6,30.10,NW,305,3.0,7.0,25,0.00,CLR,,0.00,WeatherDisplay:10.37,2013-02-17 02:25:00,
2013-02-16 19:30:00,47.8,13.6,30.10,WNW,289,2.0,12.0,25,0.00,CLR,,0.00,WeatherDisplay:10.37,2013-02-17 02:30:00,
2013-02-16 19:35:00,47.8,13.7,30.10,West,275,2.0,9.0,25,0.00,CLR,,0.00,WeatherDisplay:10.37,2013-02-17 02:35:00,
2013-02-16 19:40:00,47.8,13.6,30.10,West,269,0.0,3.0,25,0.00,CLR,,0.00,WeatherDisplay:10.37,2013-02-17 02:40:00,
2013-02-16 19:45:00,47.6,13.5,30.10,West,277,2.0,6.0,25,0.00,CLR,,0.00,WeatherDisplay:10.37,2013-02-17 02:45:00,
2013-02-16 19:50:00,47.4,14.2,30.10,WNW,294,0.0,3.0,26,0.00,CLR,,0.00,WeatherDisplay:10.37,2013-02-17 02:50:00,
2013-02-16 19:55:00,47.3,14.1,30.10,West,279,5.0,7.0,26,0.00,CLR,,0.00,WeatherDisplay:10.37,2013-02-17 02:55:00,
2013-02-16 20:00:00,47.5,13.4,30.09,West,279,4.6,4.6,25,0.00,CLR,,0.00,WeatherDisplay:10.37,2013-02-17 03:00:00,
2013-02-16 20:05:00,47.6,13.5,30.09,WSW,253,1.0,12.0,25,0.00,CLR,,0.00,WeatherDisplay:10.37,2013-02-17 03:05:00,
2013-02-16 20:10:00,47.4,13.3,30.09,West,260,0.0,5.0,25,0.00,CLR,,0.00,WeatherDisplay:10.37,2013-02-17 03:10:00,
2013-02-16 20:15:00,47.3,14.1,30.09,WNW,298,0.0,3.0,26,0.00,CLR,,0.00,WeatherDisplay:10.37,2013-02-17 03:15:00,
2013-02-16 20:20:00,47.0,13.9,30.09,WNW,297,1.0,6.0,26,0.00,CLR,,0.00,WeatherDisplay:10.37,2013-02-17 03:20:00,
2013-02-16 20:25:00,47.1,13.0,30.09,NW,315,1.0,5.0,25,0.00,CLR,,0.00,WeatherDisplay:10.37,2013-02-17 03:25:00,
2013-02-16 20:30:00,47.2,13.1,30.09,WNW,292,2.0,6.0,25,0.00,CLR,,0.00,WeatherDisplay:10.37,2013-02-17 03:30:00,
2013-02-16 20:35:00,47.3,13.2,30.09,West,259,0.0,4.0,25,0.00,CLR,,0.00,WeatherDisplay:10.37,2013-02-17 03:35:00,
2013-02-16 20:40:00,47.0,13.0,30.09,WSW,257,0.0,2.0,25,0.00,CLR,,0.00,WeatherDisplay:10.37,2013-02-17 03:40:00,
2013-02-16 20:45:00,46.7,13.6,30.09,WSW,258,0.0,0.0,26,0.00,CLR,,0.00,WeatherDisplay:10.37,2013-02-17 03:45:00,
2013-02-16 20:50:00,46.4,13.3,30.08,WSW,257,0.0,3.0,26,0.00,CLR,,0.00,WeatherDisplay:10.37,2013-02-17 03:50:00,
2013-02-16 20:55:00,45.9,12.9,30.08,WSW,257,0.0,0.0,26,0.00,CLR,,0.00,WeatherDisplay:10.37,2013-02-17 03:55:00,
2013-02-16 21:00:00,45.5,13.4,30.08,SSW,212,0.0,0.0,27,0.00,CLR,,0.00,WeatherDisplay:10.37,2013-02-17 04:00:00,
2013-02-16 21:05:00,45.3,13.2,30.08,West,276,1.0,6.0,27,0.00,CLR,,0.00,WeatherDisplay:10.37,2013-02-17 04:05:00,
2013-02-16 21:10:00,45.4,13.3,30.08,NW,305,0.0,3.0,27,0.00,CLR,,0.00,WeatherDisplay:10.37,2013-02-17 04:10:00,
2013-02-16 21:15:00,45.4,13.3,30.08,NW,308,0.0,3.0,27,0.00,CLR,,0.00,WeatherDisplay:10.37,2013-02-17 04:15:00,
2013-02-16 21:20:00,45.2,13.1,30.08,NW,308,0.0,0.0,27,0.00,CLR,,0.00,WeatherDisplay:10.37,2013-02-17 04:20:00,
2013-02-16 21:25:00,44.8,13.6,30.08,NW,308,0.0,0.0,28,0.00,CLR,,0.00,WeatherDisplay:10.37,2013-02-17 04:25:00,
2013-02-16 21:30:00,44.1,13.8,30.08,NW,308,0.0,0.0,29,0.00,CLR,,0.00,WeatherDisplay:10.37,2013-02-17 04:30:00,
2013-02-16 21:35:00,43.3,13.1,30.08,NW,307,0.0,0.0,29,0.00,CLR,,0.00,WeatherDisplay:10.37,2013-02-17 04:35:00,
2013-02-16 21:40:00,42.5,13.2,30.07,NW,308,0.0,0.0,30,0.00,CLR,,0.00,WeatherDisplay:10.37,2013-02-17 04:40:00,
2013-02-16 21:45:00,41.8,13.3,30.07,NW,308,0.0,0.0,31,0.00,CLR,,0.00,WeatherDisplay:10.37,2013-02-17 04:45:00,
2013-02-16 21:50:00,41.2,13.5,30.07,NW,308,0.0,0.0,32,0.00,CLR,,0.00,WeatherDisplay:10.37,2013-02-17 04:50:00,
2013-02-16 21:55:00,40.5,12.9,30.07,NW,308,0.0,0.0,32,0.00,CLR,,0.00,WeatherDisplay:10.37,2013-02-17 04:55:00,
2013-02-16 22:00:00,39.8,13.0,30.06,NW,308,0.0,0.0,33,0.00,CLR,,0.00,WeatherDisplay:10.37,2013-02-17 05:00:00,
2013-02-16 22:02:00,39.5,12.7,30.06,NW,308,0.0,0.0,33,0.00,CLR,,0.00,WeatherDisplay:10.37,2013-02-17 05:02:00,
2013-02-16 22:07:00,38.9,12.9,30.06,NW,308,0.0,0.0,34,0.00,CLR,,0.00,WeatherDisplay:10.37,2013-02-17 05:07:00,
2013-02-16 22:09:00,38.6,12.6,30.06,NW,307,0.0,0.0,34,0.00,CLR,,0.00,WeatherDisplay:10.37,2013-02-17 05:09:00,
2013-02-16 22:15:00,38.1,12.8,30.06,NW,307,0.0,0.0,35,0.00,CLR,,0.00,WeatherDisplay:10.37,2013-02-17 05:15:00,
2013-02-16 22:20:00,37.6,13.0,30.06,NW,307,0.0,0.0,36,0.00,CLR,,0.00,WeatherDisplay:10.37,2013-02-17 05:20:00,
2013-02-16 22:25:00,37.1,12.6,30.06,NW,308,0.0,0.0,36,0.00,CLR,,0.00,WeatherDisplay:10.37,2013-02-17 05:25:00,
2013-02-16 22:30:00,36.8,12.9,30.06,NW,308,0.0,0.0,37,0.00,CLR,,0.00,WeatherDisplay:10.37,2013-02-17 05:30:00,
2013-02-16 22:35:00,36.5,12.7,30.06,NW,307,0.0,0.0,37,0.00,CLR,,0.00,WeatherDisplay:10.37,2013-02-17 05:35:00,
2013-02-16 22:41:00,36.2,13.0,30.06,NW,307,0.0,0.0,38,0.00,CLR,,0.00,WeatherDisplay:10.37,2013-02-17 05:41:00,
2013-02-16 22:46:00,35.8,12.6,30.05,NW,307,0.0,0.0,38,0.00,CLR,,0.00,WeatherDisplay:10.37,2013-02-17 05:46:00,
2013-02-16 22:51:00,35.4,12.9,30.05,NW,308,0.0,0.0,39,0.00,CLR,,0.00,WeatherDisplay:10.37,2013-02-17 05:51:00,
2013-02-16 22:57:00,35.1,13.2,30.05,NW,308,0.0,0.0,40,0.00,CLR,,0.00,WeatherDisplay:10.37,2013-02-17 05:57:00,
2013-02-16 23:02:00,35.0,13.6,30.05,NW,308,0.0,0.0,41,0.00,CLR,,0.00,WeatherDisplay:10.37,2013-02-17 06:02:00,
2013-02-16 23:07:00,34.7,13.9,30.03,NW,307,0.0,0.0,42,0.00,CLR,,0.00,WeatherDisplay:10.37,2013-02-17 06:07:00,
2013-02-16 23:12:00,34.4,13.6,30.03,NW,307,0.0,0.0,42,0.00,CLR,,0.00,WeatherDisplay:10.37,2013-02-17 06:12:00,
2013-02-16 23:17:00,34.0,13.8,30.03,NW,307,0.0,0.0,43,0.00,CLR,,0.00,WeatherDisplay:10.37,2013-02-17 06:17:00,
2013-02-16 23:23:00,33.4,13.8,30.03,NW,307,0.0,0.0,44,0.00,CLR,,0.00,WeatherDisplay:10.37,2013-02-17 06:23:00,
2013-02-16 23:28:00,32.9,13.9,30.03,NW,308,0.0,0.0,45,0.00,CLR,,0.00,WeatherDisplay:10.37,2013-02-17 06:28:00,
2013-02-16 23:33:00,32.4,13.9,30.02,NW,308,0.0,0.0,46,0.00,CLR,,0.00,WeatherDisplay:10.37,2013-02-17 06:33:00,
2013-02-16 23:39:00,32.0,14.0,30.02,NW,308,0.0,0.0,47,0.00,CLR,,0.00,WeatherDisplay:10.37,2013-02-17 06:39:00,
2013-02-16 23:44:00,31.7,14.2,30.03,NW,308,0.0,0.0,48,0.00,CLR,,0.00,WeatherDisplay:10.37,2013-02-17 06:44:00,
2013-02-16 23:49:00,31.5,14.0,30.02,NW,308,0.0,0.0,48,0.00,CLR,,0.00,WeatherDisplay:10.37,2013-02-17 06:49:00,
2013-02-16 23:54:00,31.4,13.9,30.02,NW,307,0.0,0.0,48,0.00,CLR,,0.00,WeatherDisplay:10.37,2013-02-17 06:54:00,
2013-02-16 23:59:00,31.3,13.9,30.02,NW,307,0.0,0.0,48,0.00,CLR,,0.00,WeatherDisplay:10.37,2013-02-17 06:59:00,